Terminal Aerodrome Forecast
Issued by NWS Blacksburg, VA

Current Version | Previous Version | Text Only | Print | Product List | Glossary Off
Versions: 1 2 3 4 5 6 7 8 9 10 11 12 13 14 15 16 17 18 19 20 21 22 23 24 25 26 27 28 29

000
FTUS41 KRNK 200600 RRA
TAFBLF
TAF
KBLF 200600Z 2006/2106 00000KT P6SM -SHRA BKN040 OVC120
     FM200800 VRB03KT 6SM BR FEW004 SCT060 BKN150
     FM201300 22003KT P6SM SCT040 BKN250
     FM201700 23005KT P6SM BKN050
     FM202000 18006KT P6SM VCTS BKN050CB
     FM210000 15007KT P6SM -SHRA SCT040 OVC070=

USA.gov is the U.S. government's official web portal to all federal, state and local government web resources and services.